TimePST,TemperatureF,Dew PointF,Humidity,Sea Level PressureIn,VisibilityMPH,Wind Direction,Wind SpeedMPH,Gust SpeedMPH,PrecipitationIn,Events,Conditions,WindDirDegrees,DateUTC
12:56 AM,57.0,48.0,72,29.52,10.0,South,12.7,-,0.00,Rain,Light Rain,190,2011-11-23 08:56:00
1:56 AM,55.0,46.9,74,29.50,10.0,South,15.0,-,0.01,Rain,Light Rain,180,2011-11-23 09:56:00
2:56 AM,57.0,46.0,67,29.51,10.0,South,15.0,-,0.00,Rain,Light Rain,190,2011-11-23 10:56:00
3:56 AM,57.0,45.0,64,29.49,10.0,South,15.0,-,0.00,Rain,Light Rain,180,2011-11-23 11:56:00
4:56 AM,55.0,45.0,69,29.50,10.0,South,12.7,-,0.01,Rain,Light Rain,180,2011-11-23 12:56:00
5:56 AM,54.0,46.0,75,29.52,10.0,South,18.4,27.6,0.04,Rain,Light Rain,190,2011-11-23 13:56:00
6:12 AM,53.6,48.2,82,29.55,4.0,WSW,11.5,23.0,0.05,Rain,Heavy Rain,240,2011-11-23 14:12:00
6:56 AM,53.1,48.0,83,29.58,6.0,SSW,9.2,-,0.18,Rain,Light Rain,210,2011-11-23 14:56:00
7:56 AM,50.0,46.9,89,29.61,5.0,SW,8.1,-,0.03,Rain,Light Rain,220,2011-11-23 15:56:00
8:56 AM,50.0,46.0,86,29.64,6.0,South,8.1,-,0.02,Rain,Light Rain,170,2011-11-23 16:56:00
9:56 AM,50.0,46.9,89,29.65,5.0,Calm,Calm,-,0.06,Rain,Rain,0,2011-11-23 17:56:00
10:38 AM,50.0,46.4,87,29.67,5.0,WSW,3.5,-,0.03,Rain,Light Rain,240,2011-11-23 18:38:00
10:56 AM,50.0,46.0,86,29.68,5.0,NW,8.1,-,0.04,Rain,Rain,310,2011-11-23 18:56:00
11:56 AM,46.9,44.1,90,29.69,7.0,WNW,5.8,-,0.10,Rain,Rain,290,2011-11-23 19:56:00
12:56 PM,46.9,43.0,86,29.71,8.0,WSW,4.6,-,0.06,Rain,Light Rain,250,2011-11-23 20:56:00
1:56 PM,46.9,43.0,86,29.72,10.0,Calm,Calm,-,0.03,Rain,Light Rain,0,2011-11-23 21:56:00
2:56 PM,46.9,44.1,90,29.74,10.0,Calm,Calm,-,0.03,Rain,Light Rain,0,2011-11-23 22:56:00
5:56 PM,46.0,43.0,89,29.82,10.0,Calm,Calm,-,0.00,,Overcast,0,2011-11-24 01:56:00
6:56 PM,45.0,42.1,90,29.84,10.0,South,3.5,-,N/A,,Scattered Clouds,180,2011-11-24 02:56:00
7:56 PM,45.0,42.1,90,29.86,10.0,South,8.1,-,N/A,,Mostly Cloudy,190,2011-11-24 03:56:00
8:56 PM,45.0,42.1,90,29.88,10.0,South,5.8,-,N/A,,Overcast,190,2011-11-24 04:56:00
9:56 PM,44.1,41.0,89,29.88,10.0,SSE,8.1,-,N/A,,Overcast,160,2011-11-24 05:56:00
10:56 PM,43.0,39.9,89,29.89,10.0,SSE,4.6,-,N/A,,Mostly Cloudy,160,2011-11-24 06:56:00
11:17 PM,44.6,41.0,87,29.88,10.0,South,6.9,-,N/A,,Overcast,170,2011-11-24 07:17:00